QPF
0.00 0.00 0.00 0.00 0.00 0.00 0.00 0.00 0.00 0.00 0.00 0.00 0.00 0.00 0.00 0.00 0.00 0.00 0.00 0.00 0.00 0.00 0.02 0.03 0.05 0.08 0.12 0.14 0.22 0.27 0.26 0.24 0.21 0.20 0.17 0.15 0.11 0.08 0.07 0.04 0.03 0.02 0.01 0.00
0.00 0.00 0.00 0.00 0.00 0.00 0.00 0.00 0.00 0.00 0.00 0.00 0.00 0.00 0.00 0.00 0.00 0.00 0.00 0.00 0.00 0.00 0.00 0.01 0.02 0.04 0.06 0.07 0.12 0.16 0.16 0.16 0.16 0.14 0.13 0.14 0.10 0.06 0.04 0.03 0.02 0.02 0.01 0.01
0.00 0.00 0.00 0.00 0.00 0.00 0.00 0.00 0.00 0.00 0.00 0.00 0.00 0.00 0.00 0.00 0.00 0.00 0.00 0.00 0.00 0.00 0.00 0.00 0.01 0.01 0.02 0.04 0.05 0.08 0.11 0.12 0.12 0.11 0.09 0.09 0.07 0.06 0.04 0.02 0.01 0.01 0.01 0.00
0.00 0.00 0.00 0.00 0.00 0.00 0.00 0.00 0.00 0.00 0.00 0.00 0.00 0.00 0.00 0.00 0.00 0.00 0.00 0.00 0.00 0.00 0.00 0.00 0.00 0.01 0.02 0.02 0.03 0.06 0.08 0.10 0.10 0.08 0.06 0.05 0.05 0.06 0.04 0.02 0.01 0.01 0.00 0.00
0.00 0.00 0.00 0.00 0.00 0.00 0.00 0.00 0.00 0.00 0.00 0.00 0.00 0.00 0.00 0.00 0.00 0.00 0.00 0.00 0.00 0.00 0.00 0.00 0.00 0.00 0.01 0.02 0.03 0.04 0.06 0.09 0.08 0.06 0.05 0.04 0.04 0.04 0.04 0.04 0.02 0.01 0.00 0.00
0.00 0.00 0.00 0.00 0.00 0.00 0.00 0.00 0.00 0.00 0.00 0.00 0.00 0.00 0.00 0.00 0.00 0.00 0.00 0.00 0.00 0.00 0.00 0.00 0.00 0.00 0.01 0.01 0.02 0.03 0.05 0.06 0.05 0.04 0.05 0.04 0.04 0.03 0.03 0.03 0.02 0.01 0.00 0.00
0.00 0.00 0.00 0.00 0.00 0.00 0.00 0.00 0.00 0.00 0.00 0.00 0.00 0.00 0.00 0.00 0.00 0.00 0.00 0.00 0.00 0.00 0.00 0.00 0.00 0.00 0.00 0.01 0.02 0.03 0.04 0.04 0.04 0.05 0.05 0.05 0.04 0.03 0.03 0.02 0.02 0.01 0.00 0.00
0.00 0.00 0.00 0.00 0.00 0.00 0.00 0.00 0.00 0.00 0.00 0.00 0.00 0.00 0.00 0.00 0.00 0.00 0.00 0.00 0.00 0.00 0.00 0.00 0.00 0.00 0.00 0.00 0.01 0.02 0.03 0.04 0.05 0.05 0.03 0.02 0.03 0.03 0.03 0.02 0.01 0.01 0.01 0.00
0.00 0.00 0.00 0.00 0.00 0.00 0.00 0.00 0.00 0.00 0.00 0.00 0.00 0.00 0.00 0.00 0.00 0.00 0.00 0.00 0.00 0.00 0.00 0.00 0.00 0.00 0.00 0.00 0.01 0.02 0.03 0.05 0.05 0.04 0.02 0.02 0.03 0.03 0.02 0.02 0.01 0.01 0.01 0.01
0.00 0.00 0.00 0.00 0.00 0.00 0.00 0.00 0.00 0.00 0.00 0.00 0.00 0.00 0.00 0.00 0.00 0.00 0.00 0.00 0.00 0.00 0.00 0.00 0.00 0.00 0.00 0.00 0.01 0.02 0.03 0.04 0.04 0.04 0.03 0.02 0.03 0.04 0.03 0.02 0.02 0.01 0.01 0.01
0.00 0.01 0.00 0.00 0.00 0.00 0.00 0.00 0.00 0.00 0.00 0.00 0.00 0.00 0.00 0.00 0.00 0.00 0.00 0.00 0.00 0.00 0.00 0.00 0.00 0.00 0.00 0.00 0.01 0.02 0.03 0.03 0.03 0.03 0.03 0.02 0.02 0.03 0.03 0.03 0.02 0.01 0.01 0.01
0.02 0.02 0.02 0.02 0.01 0.00 0.00 0.00 0.00 0.00 0.00 0.00 0.00 0.00 0.00 0.00 0.00 0.00 0.00 0.00 0.00 0.00 0.00 0.00 0.00 0.00 0.00 0.00 0.00 0.02 0.03 0.03 0.03 0.02 0.02 0.01 0.01 0.00 0.00 0.01 0.00 0.00 0.00 0.00
0.02 0.02 0.01 0.01 0.00 0.00 0.00 0.00 0.00 0.00 0.00 0.01 0.01 0.01 0.01 0.01 0.00 0.00 0.00 0.00 0.00 0.00 0.00 0.00 0.00 0.00 0.00 0.00 0.00 0.01 0.02 0.03 0.03 0.02 0.01 0.01 0.01 0.00 0.00 0.00 0.00 0.00 0.00 0.00
0.01 0.01 0.00 0.00 0.00 0.00 0.00 0.01 0.01 0.01 0.02 0.01 0.01 0.01 0.01 0.01 0.01 0.01 0.01 0.00 0.00 0.00 0.00 0.00 0.00 0.00 0.00 0.00 0.00 0.01 0.02 0.02 0.02 0.02 0.02 0.01 0.00 0.00 0.00 0.00 0.00 0.00 0.00 0.00
0.00 0.00 0.00 0.01 0.00 0.01 0.01 0.02 0.02 0.03 0.03 0.03 0.03 0.02 0.02 0.02 0.02 0.01 0.01 0.01 0.01 0.00 0.00 0.00 0.00 0.00 0.00 0.00 0.00 0.00 0.01 0.01 0.01 0.01 0.01 0.01 0.00 0.00 0.00 0.00 0.00 0.00 0.00 0.00
0.01 0.00 0.00 0.00 0.01 0.01 0.02 0.02 0.03 0.04 0.04 0.04 0.04 0.04 0.03 0.03 0.03 0.03 0.02 0.02 0.01 0.01 0.00 0.00 0.00 0.00 0.00 0.00 0.00 0.00 0.01 0.01 0.01 0.01 0.01 0.00 0.00 0.00 0.00 0.00 0.00 0.00 0.00 0.00
0.01 0.01 0.01 0.01 0.01 0.01 0.02 0.03 0.05 0.06 0.06 0.06 0.06 0.06 0.05 0.05 0.05 0.04 0.03 0.02 0.01 0.01 0.00 0.00 0.00 0.00 0.00 0.00 0.00 0.00 0.00 0.00 0.00 0.00 0.01 0.00 0.00 0.00 0.00 0.00 0.00 0.00 0.00 0.00
0.01 0.01 0.01 0.02 0.02 0.02 0.03 0.04 0.06 0.08 0.09 0.10 0.10 0.09 0.09 0.08 0.08 0.07 0.05 0.04 0.03 0.02 0.01 0.01 0.00 0.00 0.00 0.00 0.00 0.00 0.00 0.00 0.00 0.00 0.00 0.00 0.00 0.00 0.00 0.00 0.00 0.00 0.00 0.00
0.00 0.01 0.01 0.01 0.02 0.02 0.03 0.05 0.07 0.09 0.11 0.12 0.12 0.11 0.10 0.09 0.08 0.08 0.06 0.05 0.04 0.03 0.02 0.01 0.01 0.00 0.00 0.00 0.00 0.00 0.00 0.00 0.00 0.00 0.00 0.00 0.00 0.00 0.00 0.00 0.00 0.00 0.00 0.00
0.00 0.00 0.00 0.00 0.00 0.01 0.02 0.03 0.06 0.08 0.11 0.13 0.14 0.14 0.13 0.12 0.11 0.10 0.08 0.06 0.04 0.04 0.03 0.03 0.02 0.01 0.00 0.00 0.00 0.00 0.00 0.00 0.00 0.00 0.00 0.00 0.00 0.00 0.00 0.00 0.00 0.00 0.00 0.00
0.00 0.00 0.00 0.00 0.00 0.00 0.01 0.01 0.03 0.04 0.07 0.10 0.13 0.14 0.15 0.15 0.15 0.14 0.12 0.09 0.06 0.05 0.04 0.03 0.01 0.01 0.00 0.00 0.00 0.00 0.00 0.00 0.00 0.00 0.00 0.00 0.00 0.00 0.00 0.00 0.00 0.00 0.00 0.00
0.00 0.00 0.00 0.00 0.00 0.01 0.01 0.01 0.02 0.04 0.05 0.07 0.09 0.10 0.12 0.13 0.13 0.13 0.11 0.10 0.09 0.09 0.06 0.04 0.02 0.01 0.01 0.00 0.00 0.00 0.00 0.00 0.00 0.00 0.00 0.00 0.00 0.00 0.00 0.00 0.00 0.00 0.00 0.00
0.00 0.00 0.00 0.01 0.01 0.01 0.01 0.02 0.03 0.05 0.06 0.07 0.07 0.07 0.08 0.09 0.09 0.09 0.08 0.07 0.08 0.09 0.08 0.06 0.03 0.02 0.02 0.01 0.00 0.00 0.00 0.00 0.00 0.00 0.00 0.00 0.00 0.00 0.00 0.00 0.00 0.00 0.00 0.00
0.00 0.01 0.01 0.01 0.01 0.02 0.03 0.03 0.04 0.05 0.06 0.06 0.06 0.06 0.07 0.08 0.07 0.05 0.04 0.04 0.04 0.05 0.06 0.05 0.03 0.02 0.02 0.02 0.01 0.00 0.00 0.00 0.00 0.00 0.00 0.00 0.00 0.00 0.00 0.00 0.00 0.00 0.00 0.00
0.01 0.01 0.01 0.02 0.03 0.05 0.05 0.06 0.06 0.07 0.06 0.06 0.05 0.06 0.07 0.07 0.06 0.04 0.03 0.03 0.02 0.02 0.03 0.04 0.02 0.02 0.01 0.01 0.01 0.00 0.00 0.00 0.00 0.00 0.00 0.00 0.00 0.00 0.00 0.00 0.00 0.00 0.00 0.00
0.01 0.01 0.02 0.03 0.05 0.07 0.09 0.11 0.12 0.10 0.09 0.09 0.07 0.06 0.06 0.06 0.06 0.05 0.04 0.03 0.02 0.02 0.02 0.03 0.03 0.02 0.01 0.01 0.00 0.00 0.00 0.00 0.00 0.00 0.00 0.00 0.00 0.00 0.00 0.00 0.00 0.00 0.00 0.00
0.01 0.01 0.03 0.04 0.06 0.09 0.13 0.16 0.17 0.16 0.14 0.13 0.11 0.09 0.07 0.06 0.05 0.05 0.04 0.04 0.03 0.03 0.03 0.03 0.03 0.03 0.02 0.02 0.01 0.01 0.00 0.00 0.00 0.00 0.00 0.00 0.00 0.00 0.00 0.00 0.00 0.00 0.00 0.00
MSLP
1013.92 1013.80 1013.67 1013.53 1013.38 1013.20 1012.97 1012.67 1012.31 1011.87 1011.38 1010.87 1010.37 1009.92 1009.56 1009.31 1009.19 1009.17 1009.26 1009.41 1009.61 1009.83 1010.04 1010.23 1010.41 1010.57 1010.72 1010.86 1011.00 1011.15 1011.29 1011.43 1011.57 1011.69 1011.79 1011.87 1011.94 1012.00 1012.04 1012.08 1012.12 1012.16 1012.20 1012.25
1013.94 1013.70 1013.43 1013.14 1012.83 1012.51 1012.17 1011.81 1011.42 1011.01 1010.58 1010.16 1009.77 1009.42 1009.15 1008.97 1008.89 1008.90 1008.98 1009.13 1009.31 1009.51 1009.71 1009.90 1010.08 1010.25 1010.41 1010.57 1010.74 1010.92 1011.10 1011.28 1011.47 1011.64 1011.81 1011.95 1012.08 1012.19 1012.28 1012.35 1012.42 1012.48 1012.54 1012.61
1013.90 1013.57 1013.19 1012.78 1012.34 1011.91 1011.48 1011.06 1010.65 1010.25 1009.87 1009.51 1009.20 1008.94 1008.75 1008.63 1008.59 1008.61 1008.70 1008.84 1009.01 1009.19 1009.37 1009.54 1009.71 1009.87 1010.02 1010.18 1010.35 1010.54 1010.73 1010.94 1011.16 1011.39 1011.61 1011.82 1012.01 1012.19 1012.34 1012.48 1012.59 1012.70 1012.79 1012.89
1013.78 1013.40 1012.96 1012.46 1011.95 1011.43 1010.93 1010.45 1010.01 1009.61 1009.24 1008.93 1008.66 1008.46 1008.32 1008.25 1008.24 1008.29 1008.38 1008.52 1008.68 1008.85 1009.02 1009.19 1009.34 1009.49 1009.63 1009.78 1009.93 1010.11 1010.30 1010.52 1010.76 1011.01 1011.27 1011.53 1011.79 1012.04 1012.26 1012.46 1012.64 1012.80 1012.95 1013.09
1013.60 1013.22 1012.75 1012.22 1011.65 1011.08 1010.52 1010.00 1009.51 1009.08 1008.70 1008.39 1008.14 1007.95 1007.84 1007.79 1007.80 1007.87 1007.98 1008.13 1008.30 1008.49 1008.67 1008.84 1009.00 1009.15 1009.29 1009.43 1009.58 1009.74 1009.92 1010.12 1010.36 1010.62 1010.90 1011.20 1011.50 1011.79 1012.08 1012.35 1012.59 1012.81 1013.02 1013.21
1013.43 1013.07 1012.61 1012.08 1011.50 1010.89 1010.28 1009.70 1009.15 1008.66 1008.24 1007.89 1007.61 1007.41 1007.29 1007.24 1007.26 1007.34 1007.48 1007.65 1007.85 1008.06 1008.28 1008.49 1008.68 1008.86 1009.02 1009.17 1009.32 1009.47 1009.64 1009.83 1010.04 1010.29 1010.57 1010.88 1011.20 1011.53 1011.86 1012.17 1012.47 1012.76 1013.02 1013.26
1013.36 1013.05 1012.62 1012.11 1011.51 1010.87 1010.22 1009.56 1008.95 1008.37 1007.87 1007.45 1007.11 1006.86 1006.70 1006.62 1006.63 1006.71 1006.86 1007.06 1007.29 1007.55 1007.82 1008.09 1008.35 1008.58 1008.79 1008.98 1009.15 1009.31 1009.47 1009.65 1009.85 1010.07 1010.33 1010.62 1010.94 1011.28 1011.63 1011.98 1012.32 1012.66 1012.97 1013.27
1013.49 1013.23 1012.84 1012.34 1011.74 1011.06 1010.34 1009.61 1008.90 1008.23 1007.62 1007.10 1006.67 1006.34 1006.11 1005.98 1005.95 1006.01 1006.15 1006.37 1006.63 1006.94 1007.27 1007.61 1007.94 1008.25 1008.53 1008.78 1009.00 1009.20 1009.38 1009.55 1009.73 1009.93 1010.16 1010.42 1010.72 1011.05 1011.41 1011.78 1012.16 1012.54 1012.91 1013.26
1013.88 1013.67 1013.31 1012.80 1012.18 1011.45 1010.66 1009.84 1009.02 1008.24 1007.52 1006.88 1006.34 1005.91 1005.60 1005.39 1005.30 1005.31 1005.42 1005.62 1005.89 1006.23 1006.61 1007.01 1007.41 1007.81 1008.17 1008.51 1008.80 1009.05 1009.27 1009.46 1009.64 1009.82 1010.03 1010.26 1010.53 1010.84 1011.19 1011.58 1011.99 1012.41 1012.83 1013.24
1014.54 1014.35 1013.99 1013.46 1012.79 1012.00 1011.13 1010.21 1009.29 1008.40 1007.57 1006.82 1006.18 1005.65 1005.23 1004.93 1004.75 1004.69 1004.73 1004.87 1005.12 1005.44 1005.83 1006.26 1006.73 1007.19 1007.65 1008.07 1008.44 1008.77 1009.04 1009.28 1009.48 1009.67 1009.86 1010.08 1010.33 1010.62 1010.97 1011.37 1011.80 1012.27 1012.74 1013.21
1015.41 1015.20 1014.80 1014.22 1013.48 1012.61 1011.65 1010.65 1009.65 1008.67 1007.76 1006.93 1006.20 1005.58 1005.07 1004.67 1004.38 1004.20 1004.14 1004.20 1004.36 1004.62 1004.98 1005.40 1005.89 1006.40 1006.92 1007.42 1007.89 1008.29 1008.65 1008.94 1009.19 1009.40 1009.61 1009.82 1010.07 1010.36 1010.71 1011.12 1011.59 1012.10 1012.62 1013.14
1016.32 1016.05 1015.58 1014.92 1014.10 1013.15 1012.12 1011.06 1010.01 1008.99 1008.04 1007.17 1006.39 1005.70 1005.11 1004.62 1004.22 1003.92 1003.72 1003.64 1003.68 1003.83 1004.10 1004.48 1004.94 1005.46 1006.01 1006.57 1007.11 1007.60 1008.04 1008.41 1008.72 1008.98 1009.22 1009.46 1009.72 1010.02 1010.39 1010.83 1011.32 1011.87 1012.44 1013.01
1017.10 1016.74 1016.16 1015.40 1014.49 1013.48 1012.41 1011.32 1010.26 1009.25 1008.32 1007.46 1006.67 1005.96 1005.33 1004.75 1004.25 1003.82 1003.48 1003.24 1003.12 1003.13 1003.27 1003.55 1003.94 1004.43 1004.99 1005.58 1006.17 1006.74 1007.25 1007.69 1008.08 1008.40 1008.69 1008.97 1009.27 1009.60 1010.00 1010.46 1010.98 1011.56 1012.17 1012.78
1017.58 1017.09 1016.39 1015.52 1014.54 1013.48 1012.40 1011.33 1010.32 1009.37 1008.50 1007.70 1006.97 1006.28 1005.62 1005.00 1004.41 1003.87 1003.38 1002.98 1002.70 1002.54 1002.54 1002.69 1002.98 1003.41 1003.93 1004.53 1005.15 1005.76 1006.33 1006.85 1007.30 1007.70 1008.05 1008.38 1008.72 1009.09 1009.51 1010.00 1010.55 1011.15 1011.78 1012.41
1017.66 1017.01 1016.18 1015.22 1014.18 1013.10 1012.05 1011.04 1010.12 1009.28 1008.52 1007.82 1007.17 1006.54 1005.90 1005.27 1004.62 1003.99 1003.38 1002.84 1002.40 1002.09 1001.93 1001.94 1002.13 1002.46 1002.93 1003.50 1004.12 1004.75 1005.37 1005.93 1006.44 1006.90 1007.31 1007.69 1008.07 1008.48 1008.94 1009.45 1010.02 1010.63 1011.27 1011.89
1017.29 1016.50 1015.56 1014.52 1013.44 1012.38 1011.38 1010.47 1009.66 1008.95 1008.32 1007.75 1007.20 1006.65 1006.06 1005.44 1004.77 1004.08 1003.39 1002.74 1002.18 1001.74 1001.45 1001.35 1001.42 1001.67 1002.06 1002.58 1003.17 1003.79 1004.42 1005.01 1005.56 1006.05 1006.50 1006.93 1007.35 1007.80 1008.28 1008.80 1009.38 1009.99 1010.61 1011.22
1016.55 1015.63 1014.59 1013.51 1012.43 1011.40 1010.48 1009.67 1008.98 1008.40 1007.90 1007.45 1007.01 1006.54 1006.02 1005.43 1004.77 1004.06 1003.33 1002.63 1001.99 1001.47 1001.09 1000.89 1000.87 1001.03 1001.35 1001.80 1002.34 1002.93 1003.54 1004.12 1004.67 1005.19 1005.66 1006.12 1006.57 1007.03 1007.53 1008.06 1008.63 1009.23 1009.82 1010.40
1015.57 1014.55 1013.46 1012.35 1011.29 1010.32 1009.47 1008.76 1008.17 1007.70 1007.31 1006.96 1006.60 1006.20 1005.73 1005.18 1004.55 1003.86 1003.14 1002.43 1001.77 1001.22 1000.80 1000.54 1000.46 1000.56 1000.80 1001.18 1001.66 1002.19 1002.74 1003.29 1003.82 1004.32 1004.80 1005.26 1005.73 1006.20 1006.71 1007.24 1007.79 1008.36 1008.93 1009.46
1014.50 1013.43 1012.31 1011.22 1010.19 1009.28 1008.50 1007.86 1007.34 1006.94 1006.60 1006.29 1005.98 1005.62 1005.19 1004.68 1004.09 1003.44 1002.76 1002.09 1001.47 1000.94 1000.53 1000.27 1000.16 1000.20 1000.39 1000.70 1001.09 1001.54 1002.02 1002.51 1002.99 1003.46 1003.92 1004.37 1004.83 1005.31 1005.81 1006.33 1006.87 1007.42 1007.94 1008.43
1013.48 1012.40 1011.30 1010.24 1009.27 1008.40 1007.67 1007.06 1006.57 1006.17 1005.83 1005.52 1005.20 1004.84 1004.42 1003.94 1003.40 1002.81 1002.20 1001.61 1001.07 1000.60 1000.24 1000.00 999.89 999.91 1000.05 1000.28 1000.59 1000.95 1001.34 1001.75 1002.16 1002.58 1003.00 1003.44 1003.89 1004.36 1004.86 1005.37 1005.89 1006.41 1006.91 1007.36
1012.60 1011.54 1010.49 1009.49 1008.56 1007.73 1007.02 1006.41 1005.89 1005.45 1005.06 1004.69 1004.32 1003.93 1003.50 1003.03 1002.52 1002.00 1001.49 1000.99 1000.55 1000.17 999.89 999.70 999.61 999.61 999.70 999.87 1000.09 1000.36 1000.65 1000.97 1001.31 1001.67 1002.05 1002.46 1002.90 1003.37 1003.86 1004.37 1004.88 1005.38 1005.85 1006.26
1011.87 1010.86 1009.88 1008.93 1008.05 1007.25 1006.53 1005.89 1005.31 1004.79 1004.31 1003.84 1003.39 1002.93 1002.46 1002.00 1001.53 1001.07 1000.65 1000.26 999.92 999.65 999.45 999.31 999.25 999.25 999.30 999.40 999.54 999.71 999.91 1000.14 1000.41 1000.71 1001.05 1001.44 1001.88 1002.35 1002.84 1003.35 1003.86 1004.35 1004.79 1005.19
1011.24 1010.32 1009.41 1008.52 1007.68 1006.89 1006.15 1005.45 1004.79 1004.16 1003.56 1002.99 1002.43 1001.90 1001.39 1000.91 1000.47 1000.07 999.73 999.44 999.20 999.03 998.90 998.82 998.77 998.76 998.77 998.81 998.87 998.95 999.07 999.22 999.43 999.69 1000.01 1000.39 1000.83 1001.31 1001.82 1002.34 1002.85 1003.33 1003.77 1004.15
1010.68 1009.83 1008.99 1008.17 1007.36 1006.56 1005.79 1005.02 1004.27 1003.54 1002.82 1002.13 1001.47 1000.86 1000.31 999.82 999.39 999.04 998.77 998.56 998.41 998.30 998.23 998.18 998.15 998.12 998.09 998.06 998.05 998.06 998.11 998.21 998.37 998.60 998.92 999.31 999.76 1000.26 1000.80 1001.34 1001.86 1002.35 1002.79 1003.16
1010.12 1009.34 1008.57 1007.79 1007.00 1006.20 1005.38 1004.55 1003.72 1002.88 1002.06 1001.27 1000.53 999.85 999.26 998.75 998.34 998.02 997.79 997.64 997.54 997.48 997.44 997.41 997.36 997.30 997.23 997.15 997.08 997.04 997.04 997.10 997.25 997.48 997.80 998.22 998.70 999.24 999.81 1000.37 1000.92 1001.42 1001.87 1002.24
1009.54 1008.83 1008.10 1007.35 1006.57 1005.76 1004.90 1004.02 1003.11 1002.19 1001.28 1000.41 999.61 998.88 998.25 997.73 997.32 997.02 996.82 996.69 996.61 996.57 996.54 996.49 996.43 996.33 996.22 996.10 995.99 995.91 995.89 995.95 996.10 996.35 996.71 997.16 997.68 998.26 998.87 999.47 1000.04 1000.57 1001.02 1001.41
1008.97 1008.29 1007.60 1006.87 1006.08 1005.25 1004.36 1003.42 1002.45 1001.47 1000.50 999.57 998.72 997.95 997.30 996.76 996.35 996.05 995.85 995.72 995.65 995.59 995.54 995.48 995.38 995.26 995.12 994.98 994.85 994.76 994.75 994.82 995.00 995.29 995.69 996.19 996.76 997.39 998.04 998.67 999.27 999.81 1000.29 1000.70
Thickness
5712 5715 5713 5708 5705 5704 5695 5690 5683 5690 5692 5698 5700 5699 5698 5696 5693 5689 5687 5684 5679 5674 5670 5664 5659 5653 5648 5642 5636 5631 5626 5621 5617 5615 5613 5611 5611 5610 5610 5612 5615 5617 5620 5623
5702 5708 5708 5702 5703 5701 5698 5696 5692 5690 5690 5701 5702 5697 5691 5688 5684 5682 5681 5679 5675 5670 5665 5660 5654 5650 5644 5638 5633 5628 5623 5619 5615 5611 5608 5606 5605 5604 5603 5604 5606 5608 5612 5615
5694 5705 5697 5691 5704 5702 5700 5701 5695 5686 5691 5698 5692 5688 5685 5682 5680 5678 5676 5674 5670 5666 5661 5656 5651 5647 5640 5635 5631 5625 5621 5617 5613 5609 5605 5604 5602 5601 5599 5599 5599 5601 5604 5606
5692 5689 5674 5702 5715 5706 5697 5698 5699 5695 5694 5692 5688 5686 5683 5680 5676 5674 5672 5669 5666 5661 5657 5653 5648 5643 5638 5634 5629 5624 5620 5616 5612 5608 5605 5602 5600 5598 5596 5596 5595 5596 5598 5599
5686 5682 5688 5701 5705 5700 5688 5687 5696 5691 5688 5687 5686 5679 5679 5681 5676 5670 5668 5665 5661 5658 5654 5649 5644 5640 5635 5631 5627 5623 5619 5615 5611 5608 5604 5601 5598 5595 5594 5592 5591 5592 5593 5593
5680 5667 5667 5689 5698 5696 5683 5675 5692 5687 5680 5679 5674 5664 5672 5677 5672 5667 5663 5660 5656 5653 5649 5644 5640 5636 5631 5628 5625 5621 5618 5615 5611 5607 5603 5600 5597 5594 5592 5590 5588 5589 5587 5588
5673 5669 5679 5693 5690 5684 5662 5668 5678 5677 5674 5672 5668 5667 5672 5671 5667 5662 5658 5655 5651 5648 5643 5640 5636 5631 5627 5625 5623 5621 5618 5613 5608 5605 5602 5599 5595 5592 5590 5588 5586 5585 5582 5582
5668 5659 5666 5682 5675 5661 5658 5667 5667 5668 5668 5668 5668 5669 5669 5666 5661 5657 5653 5650 5647 5642 5639 5636 5633 5628 5624 5622 5622 5619 5615 5610 5607 5603 5601 5598 5593 5590 5588 5585 5582 5580 5579 5578
5663 5663 5670 5669 5662 5661 5660 5658 5660 5662 5664 5664 5663 5664 5664 5662 5658 5654 5650 5647 5644 5639 5635 5633 5630 5626 5622 5622 5620 5616 5612 5609 5605 5602 5600 5597 5593 5589 5586 5584 5585 5583 5579 5578
5653 5656 5654 5653 5651 5649 5648 5649 5653 5656 5658 5659 5657 5659 5658 5657 5654 5651 5647 5644 5640 5637 5633 5630 5628 5625 5622 5621 5618 5614 5610 5607 5604 5601 5598 5596 5593 5591 5589 5587 5586 5583 5581 5578
5637 5638 5633 5633 5628 5630 5634 5638 5642 5645 5647 5648 5649 5650 5651 5650 5649 5647 5644 5641 5637 5634 5631 5629 5626 5623 5621 5619 5615 5612 5609 5607 5604 5601 5598 5595 5593 5591 5589 5588 5586 5583 5582 5580
5610 5605 5603 5605 5608 5611 5614 5618 5623 5627 5630 5633 5635 5636 5638 5641 5642 5642 5640 5637 5634 5632 5630 5627 5624 5621 5619 5617 5613 5610 5607 5605 5603 5601 5598 5595 5592 5588 5578 5579 5576 5574 5573 5575
5589 5591 5591 5590 5594 5595 5596 5600 5604 5607 5609 5611 5615 5617 5620 5624 5628 5631 5632 5632 5630 5629 5628 5626 5623 5620 5618 5615 5612 5608 5606 5604 5602 5601 5598 5595 5592 5589 5584 5573 5567 5566 5566 5565
5578 5578 5577 5578 5580 5582 5584 5587 5590 5592 5593 5594 5597 5599 5602 5606 5611 5615 5620 5623 5625 5625 5625 5623 5621 5618 5616 5613 5609 5606 5604 5601 5599 5598 5596 5594 5592 5590 5587 5582 5575 5570 5561 5557
5567 5565 5564 5566 5568 5570 5572 5574 5576 5578 5580 5582 5584 5584 5585 5588 5594 5600 5606 5611 5616 5619 5620 5620 5618 5616 5615 5611 5607 5604 5602 5601 5598 5597 5594 5593 5591 5588 5587 5583 5580 5575 5569 5557
5555 5554 5554 5555 5557 5559 5560 5560 5561 5563 5564 5565 5567 5569 5571 5574 5579 5585 5591 5597 5603 5609 5614 5615 5615 5615 5612 5609 5604 5601 5599 5597 5594 5593 5592 5590 5588 5586 5584 5582 5579 5576 5572 5567
5541 5543 5545 5545 5545 5544 5544 5543 5543 5546 5549 5550 5553 5555 5557 5560 5565 5571 5577 5584 5590 5598 5605 5610 5612 5612 5610 5606 5603 5601 5599 5595 5587 5589 5589 5588 5586 5584 5582 5580 5577 5575 5573 5570
5533 5531 5530 5528 5527 5526 5526 5525 5525 5526 5529 5533 5538 5541 5544 5547 5550 5556 5562 5570 5578 5587 5595 5602 5606 5607 5607 5604 5602 5601 5598 5596 5589 5588 5588 5586 5584 5582 5580 5578 5576 5573 5570 5566
5524 5521 5517 5514 5510 5507 5507 5507 5508 5509 5512 5515 5520 5524 5530 5534 5538 5543 5550 5556 5565 5574 5583 5591 5594 5599 5602 5602 5600 5598 5598 5595 5591 5588 5586 5582 5579 5580 5578 5576 5574 5571 5569 5567
5513 5508 5504 5500 5497 5493 5491 5492 5493 5495 5497 5499 5503 5508 5514 5521 5525 5531 5538 5545 5554 5563 5571 5578 5586 5591 5597 5599 5596 5598 5597 5594 5592 5589 5586 5584 5580 5578 5577 5575 5573 5571 5568 5566
5499 5495 5491 5488 5487 5485 5483 5481 5481 5483 5484 5486 5489 5494 5501 5508 5513 5520 5527 5536 5546 5553 5560 5567 5577 5585 5590 5594 5590 5596 5597 5594 5592 5589 5587 5584 5581 5578 5576 5574 5572 5570 5567 5565
5487 5483 5481 5479 5478 5478 5477 5475 5474 5475 5476 5478 5480 5484 5489 5495 5501 5509 5518 5527 5536 5542 5550 5560 5570 5578 5584 5585 5588 5592 5595 5595 5593 5591 5588 5585 5583 5579 5576 5574 5571 5569 5567 5565
5476 5474 5472 5471 5470 5471 5471 5471 5470 5470 5471 5472 5473 5476 5480 5486 5491 5498 5510 5521 5529 5535 5543 5553 5561 5567 5571 5576 5583 5587 5592 5595 5594 5592 5590 5587 5585 5582 5578 5575 5572 5569 5567 5565
5469 5467 5466 5464 5464 5465 5466 5468 5467 5466 5467 5469 5471 5473 5475 5480 5488 5496 5505 5514 5521 5527 5537 5545 5550 5557 5560 5571 5579 5585 5591 5594 5594 5593 5591 5588 5586 5584 5580 5577 5574 5571 5568 5566
5464 5462 5462 5461 5461 5462 5463 5465 5466 5466 5466 5468 5469 5471 5473 5477 5483 5492 5501 5511 5518 5523 5534 5542 5547 5552 5560 5569 5577 5584 5589 5593 5595 5594 5591 5589 5587 5585 5582 5579 5576 5573 5570 5567
5462 5461 5461 5459 5459 5460 5461 5462 5463 5464 5464 5466 5468 5470 5473 5477 5482 5488 5497 5507 5517 5524 5533 5543 5551 5556 5565 5572 5578 5584 5587 5590 5591 5590 5591 5590 5587 5585 5583 5581 5577 5574 5571 5569
5464 5463 5462 5463 5463 5463 5462 5462 5463 5465 5466 5466 5469 5472 5474 5478 5483 5489 5496 5505 5515 5525 5535 5545 5554 5562 5568 5574 5580 5583 5586 5589 5591 5590 5590 5589 5587 5585 5583 5580 5578 5575 5572 5570